[[{"header":{"parameterUnit":"m.s-1","parameterCategory":1,"la1":30.2991,"la2":30.254,"lo1":-89.0895,"lo2":-89.0444,"dy":0.0017,"dx":0.0017,"nx":28,"ny":28,"refTime":"2023-11-09T03:00:00:Z","depth":0,"parameterNumber":2,"parameterNumberName":"U-component_of_WINDS"},"data":[0,0,0,0,0,0,0,0,0,0,0,0,0,0,0,0,0,0,0,0,0,0,0,0,0,0,0,0,0,0,0,0,0,0,0,0,0,0,0,0,0,0,0,0,0,0,0,0,0,0,0,0,0,0,0,0,0,0,-0.8097,-0.8097,0,-0.8107,-0.8107,-0.8107,-0.8085,-0.8085,-0.8084,-0.8083,-0.8094,-0.8095,-0.8096,0,0,0,0,0,0,0,0,0,0,0,0,0,-0.8059,-0.806,-0.8097,-0.8097,-0.8097,-0.8107,-0.8107,-0.8107,-0.8085,-0.8085,-0.8084,-0.8083,-0.8093,-0.8095,-0.8096,0,0,0,0,0,0,0,0,0,0,0,0,0,-0.8073,-0.806,-0.8097,-0.8088,-0.8087,-0.8107,-0.8107,-0.8107,-0.8086,-0.8085,-0.8084,-0.8083,-0.8093,-0.8094,-0.8096,-0.8125,0,0,-0.81,-0.8101,0,0,0,0,0,0,0,0,-0.8072,-0.8074,-0.8089,-0.8088,-0.8088,-0.8094,-0.8097,-0.8113,-0.8086,-0.8086,-0.8083,-0.8082,-0.8095,-0.8096,-0.81,-0.8126,-0.8126,-0.81,-0.8101,-0.8102,-0.8102,0,0,0,0,0,0,0,-0.8071,-0.8074,-0.8101,-0.8089,-0.8088,-0.8083,-0.8083,-0.81,-0.8096,-0.8086,-0.8085,-0.8086,-0.8094,-0.8099,-0.81,-0.8126,-0.81,-0.8101,-0.8102,-0.8103,-0.8173,-0.8174,0,0,0,0,0,0,-0.8071,-0.8073,-0.8101,-0.8101,-0.8077,-0.8084,-0.8085,-0.8093,-0.8096,-0.8095,-0.8087,-0.8085,-0.8097,-0.8098,-0.81,-0.8133,-0.8102,-0.8103,-0.8104,-0.8172,-0.8173,-0.8175,0,0,0,0,0,0,-0.8071,-0.8074,-0.81,-0.8087,-0.8089,-0.8086,-0.8095,-0.8094,-0.8098,-0.8096,-0.8096,-0.8092,-0.8096,-0.8098,-0.8118,-0.8133,-0.8103,-0.8105,-0.8171,-0.8173,-0.8174,-0.82,0,0,0,0,0,0,-0.807,-0.8074,-0.8086,-0.8087,-0.809,-0.8119,-0.8096,-0.8094,-0.81,-0.8098,-0.8101,-0.8101,-0.8095,-0.8116,-0.812,-0.8134,-0.8106,-0.817,-0.8172,-0.8174,-0.8197,-0.8202,-0.8206,0,0,0,0,0,-0.8068,-0.8093,-0.8086,-0.809,-0.8105,-0.812,-0.8121,-0.8115,-0.8102,-0.8113,-0.8111,-0.8101,-0.8131,-0.8119,-0.8122,-0.8138,-0.8169,-0.8171,-0.8173,-0.8196,-0.8201,-0.8206,0,0,0,0,0,0,-0.8095,-0.8093,-0.8086,-0.8112,-0.8116,-0.8116,-0.813,-0.8121,-0.8129,-0.8126,-0.8117,-0.8118,-0.8139,-0.8141,-0.8127,-0.8164,-0.8147,-0.8151,-0.8163,-0.8168,-0.8172,-0.8171,-0.8107,0,0,0,0,0,-0.8103,-0.8116,-0.8114,-0.8137,-0.8139,-0.8134,-0.8141,-0.8134,-0.8138,-0.814,-0.814,-0.8144,-0.8154,-0.8161,-0.8171,-0.8197,-0.8197,-0.8209,-0.8213,-0.8217,-0.822,-0.8231,-0.8236,-0.8182,-0.8182,-0.8182,0,0,-0.8122,-0.8122,-0.8131,-0.8142,-0.8145,-0.8157,-0.8136,-0.8151,-0.8159,-0.8143,-0.8161,-0.8161,-0.8165,-0.8187,-0.8197,-0.8189,-0.8234,-0.822,-0.8222,-0.8223,-0.8234,-0.8239,-0.8244,-0.8184,-0.8184,-0.8183,0,0,-0.8161,-0.8164,-0.8182,-0.8184,-0.8188,-0.8184,-0.8188,-0.8189,-0.8188,-0.8206,-0.8193,-0.8203,-0.8221,-0.8224,-0.8227,-0.8264,-0.8254,-0.8268,-0.8289,-0.83,-0.8305,-0.8308,-0.832,-0.8324,-0.8271,-0.8271,-0.8271,0,-0.8184,-0.8202,-0.8193,-0.8207,-0.8212,-0.8196,-0.8214,-0.8216,-0.8223,-0.8226,-0.8216,-0.8237,-0.8239,-0.826,-0.8269,-0.8273,-0.8277,-0.8268,-0.8305,-0.8308,-0.8312,-0.8323,-0.8327,-0.8272,-0.8272,-0.8272,-0.8272,0,-0.8228,-0.8241,-0.8255,-0.826,-0.8267,-0.8283,-0.8275,-0.8282,-0.8275,-0.8272,-0.8289,-0.829,-0.8298,-0.8303,-0.8297,-0.8323,-0.8317,-0.8306,-0.8289,-0.8318,-0.8328,-0.8333,-0.8274,-0.8274,-0.8273,-0.8273,0,0,-0.8287,-0.8285,-0.829,-0.8291,-0.8292,-0.8301,-0.8316,-0.8323,-0.8328,-0.8333,-0.8344,-0.8358,-0.8347,-0.8351,-0.8344,-0.8354,-0.8381,-0.8342,-0.8342,-0.8348,-0.8408,-0.8416,-0.8421,-0.8374,-0.8375,-0.8376,-0.8407,0,-0.8324,-0.8349,-0.834,-0.8365,-0.8375,-0.8359,-0.8371,-0.8373,-0.8369,-0.8377,-0.8373,-0.8383,-0.8368,-0.837,-0.8379,-0.8376,-0.8393,-0.8374,-0.8383,-0.8384,-0.8382,-0.8426,-0.8435,-0.8465,-0.8411,-0.8412,-0.8412,0,-0.8373,-0.8377,-0.8403,-0.84,-0.8403,-0.8415,-0.8419,-0.8427,-0.8428,-0.8424,-0.8427,-0.8418,-0.843,-0.8413,-0.8429,-0.8416,-0.8419,-0.8418,-0.8418,-0.8419,-0.84,-0.8427,-0.8474,-0.8478,-0.8419,-0.8418,-0.8418,0,-0.841,-0.8423,-0.8439,-0.8441,-0.8438,-0.8446,-0.8445,-0.8445,-0.8449,-0.8452,-0.8454,-0.846,-0.8462,-0.8466,-0.8458,-0.8446,-0.8474,-0.8457,-0.8471,-0.8471,-0.8478,-0.8477,-0.8526,-0.8481,-0.8481,-0.8481,-0.8481,0,-0.8453,-0.8469,-0.8456,-0.8466,-0.8483,-0.8471,-0.8488,-0.8485,-0.8484,-0.8493,-0.8479,-0.8487,-0.8476,-0.8482,-0.8476,-0.8489,-0.8491,-0.8487,-0.8485,-0.8488,-0.8488,-0.849,-0.8487,-0.8482,-0.8482,-0.8482,-0.8481,0,-0.8499,-0.8491,-0.8507,-0.8502,-0.8501,-0.8514,-0.8509,-0.8517,-0.8512,-0.8523,-0.8524,-0.8516,-0.8523,-0.8514,-0.8521,-0.8516,-0.8533,-0.8529,-0.8533,-0.8531,-0.8546,-0.8544,-0.8596,-0.8601,-0.8554,-0.8555,-0.8555,0,-0.8527,-0.8538,-0.8534,-0.8538,-0.8538,-0.8545,-0.8548,-0.8537,-0.8541,-0.854,-0.8548,-0.8554,-0.8557,-0.8568,-0.8562,-0.8566,-0.8561,-0.8579,-0.8562,-0.8563,-0.856,-0.8559,-0.8559,-0.8582,-0.8583,-0.8583,-0.8584,0,-0.8576,-0.8571,-0.8576,-0.8579,-0.8583,-0.8585,-0.8586,-0.859,-0.8578,-0.8583,-0.8589,-0.8591,-0.8596,-0.8601,-0.8603,-0.8601,-0.859,-0.8589,-0.8592,-0.8595,-0.8597,-0.8594,-0.8542,-0.8588,-0.8588,-0.8587,-0.8587,-0.8587,-0.8613,-0.8621,-0.8619,-0.8624,-0.8623,-0.8624,-0.8631,-0.8625,-0.863,-0.8633,-0.8626,-0.8633,-0.863,-0.8631,-0.8631,-0.8635,-0.8628,-0.8633,-0.8634,-0.8635,-0.8636,-0.8596,-0.8636,-0.8636,-0.8636,-0.8635,-0.8635,0,-0.866,-0.8657,-0.8662,-0.8663,-0.8667,-0.8655,-0.8655,-0.8658,-0.8665,-0.8663,-0.8666,-0.8672,-0.8676,-0.8669,-0.8672,-0.8676,-0.8671,-0.8677,-0.8677,-0.8676,-0.8644,-0.8641,-0.8681,-0.8681,-0.8681,-0.8681,-0.8681,-0.8681,-0.8686,-0.8698,-0.8692,-0.8704,-0.87,-0.8707,-0.8708,-0.8707,-0.8706,-0.8712,-0.8715,-0.871,-0.8706,-0.8708,-0.871,-0.8708,-0.8709,-0.8716,-0.8712,-0.8683,-0.8678,-0.8674,-0.8671,-0.8717,-0.8717,-0.8743,-0.8744,-0.8744]},{"header":{"parameterUnit":"m.s-1","parameterCategory":1,"la1":30.2991,"la2":30.254,"lo1":-89.0895,"lo2":-89.0444,"dy":0.0017,"dx":0.0017,"nx":28,"ny":28,"refTime":"2023-11-09T03:00:00:Z","depth":0,"parameterNumber":3,"parameterNumberName":"V-component_of_WINDS"},"data":[0,0,0,0,0,0,0,0,0,0,0,0,0,0,0,0,0,0,0,0,0,0,0,0,0,0,0,0,0,0,0,0,0,0,0,0,0,0,0,0,0,0,0,0,0,0,0,0,0,0,0,0,0,0,0,0,0,0,-1.3383,-1.3382,0,-1.3324,-1.3323,-1.3323,-1.3287,-1.3287,-1.3287,-1.3287,-1.3222,-1.322,-1.3219,0,0,0,0,0,0,0,0,0,0,0,0,0,-1.3459,-1.3458,-1.3383,-1.3382,-1.3381,-1.3324,-1.3323,-1.3322,-1.3287,-1.3287,-1.3287,-1.3287,-1.3222,-1.3221,-1.3219,0,0,0,0,0,0,0,0,0,0,0,0,0,-1.3415,-1.3457,-1.3383,-1.3357,-1.3354,-1.3324,-1.3323,-1.3322,-1.3288,-1.3287,-1.3287,-1.3287,-1.3223,-1.3221,-1.3218,-1.3208,0,0,-1.3211,-1.321,0,0,0,0,0,0,0,0,-1.3418,-1.3413,-1.3362,-1.3359,-1.3356,-1.3313,-1.3326,-1.3284,-1.3288,-1.3313,-1.3287,-1.3287,-1.3252,-1.3247,-1.3237,-1.3205,-1.3202,-1.3211,-1.3209,-1.3208,-1.3208,0,0,0,0,0,0,0,-1.3421,-1.3415,-1.3359,-1.3361,-1.3357,-1.3346,-1.334,-1.3318,-1.3284,-1.3311,-1.3308,-1.3302,-1.325,-1.3239,-1.3235,-1.3201,-1.3211,-1.3209,-1.3207,-1.3206,-1.3154,-1.3154,0,0,0,0,0,0,-1.3429,-1.3418,-1.3361,-1.3358,-1.3387,-1.3345,-1.3338,-1.3327,-1.3284,-1.3278,-1.3302,-1.33,-1.3243,-1.3238,-1.3232,-1.3215,-1.3208,-1.3206,-1.3205,-1.3154,-1.3154,-1.3154,0,0,0,0,0,0,-1.3431,-1.3424,-1.3364,-1.3387,-1.3378,-1.3344,-1.3332,-1.3326,-1.3314,-1.3278,-1.3271,-1.3297,-1.3243,-1.3236,-1.3214,-1.3212,-1.3205,-1.3203,-1.3154,-1.3154,-1.3154,-1.3182,0,0,0,0,0,0,-1.3433,-1.3425,-1.3422,-1.3387,-1.3377,-1.3348,-1.3332,-1.3325,-1.3311,-1.3308,-1.3271,-1.3265,-1.3242,-1.3218,-1.3211,-1.3209,-1.3201,-1.3154,-1.3154,-1.3154,-1.3181,-1.3183,-1.3185,0,0,0,0,0,-1.3436,-1.3432,-1.3423,-1.3416,-1.3374,-1.3348,-1.3342,-1.3318,-1.3311,-1.3307,-1.3283,-1.3266,-1.3214,-1.3216,-1.3208,-1.3205,-1.3153,-1.3154,-1.3154,-1.318,-1.3183,-1.3185,0,0,0,0,0,0,-1.3468,-1.3427,-1.3416,-1.3402,-1.3379,-1.3343,-1.3337,-1.3321,-1.3299,-1.3297,-1.3265,-1.3257,-1.3238,-1.3219,-1.3222,-1.3191,-1.3181,-1.318,-1.3204,-1.3206,-1.3208,-1.3212,-1.3199,0,0,0,0,0,-1.3473,-1.3458,-1.3423,-1.3413,-1.3402,-1.3372,-1.336,-1.3342,-1.3317,-1.3306,-1.3281,-1.3255,-1.3232,-1.3218,-1.3195,-1.3178,-1.3168,-1.3172,-1.3174,-1.3175,-1.3174,-1.316,-1.3161,-1.3154,-1.3154,-1.3154,0,0,-1.3484,-1.346,-1.3452,-1.3419,-1.3399,-1.3382,-1.3364,-1.3347,-1.3333,-1.3303,-1.3281,-1.3261,-1.323,-1.3209,-1.3199,-1.3193,-1.3174,-1.3175,-1.3177,-1.3175,-1.3161,-1.3161,-1.3162,-1.3154,-1.3154,-1.3154,0,0,-1.3495,-1.3476,-1.3465,-1.3446,-1.3416,-1.3395,-1.3392,-1.3358,-1.3344,-1.3321,-1.3298,-1.3279,-1.3242,-1.322,-1.3204,-1.3203,-1.3186,-1.3196,-1.3206,-1.3192,-1.3193,-1.3193,-1.3191,-1.3191,-1.3195,-1.3195,-1.3195,0,-1.3512,-1.3487,-1.3461,-1.3445,-1.343,-1.3403,-1.339,-1.3371,-1.3335,-1.3324,-1.3319,-1.3269,-1.3246,-1.3219,-1.3218,-1.3207,-1.32,-1.32,-1.3195,-1.3195,-1.3195,-1.3192,-1.3192,-1.3197,-1.3196,-1.3196,-1.3196,0,-1.3508,-1.349,-1.3485,-1.3451,-1.3435,-1.3421,-1.3391,-1.3377,-1.336,-1.3339,-1.3314,-1.3285,-1.3255,-1.3247,-1.323,-1.3216,-1.3213,-1.3202,-1.3192,-1.3198,-1.3194,-1.3193,-1.3199,-1.3198,-1.3198,-1.3197,0,0,-1.3539,-1.349,-1.3488,-1.3472,-1.3436,-1.3421,-1.3403,-1.3375,-1.3363,-1.3338,-1.3321,-1.3288,-1.3276,-1.3258,-1.3238,-1.3227,-1.3224,-1.3216,-1.3214,-1.3217,-1.3204,-1.3212,-1.3212,-1.3213,-1.3213,-1.3212,-1.3206,0,-1.3543,-1.3513,-1.3489,-1.3467,-1.3448,-1.3421,-1.3406,-1.338,-1.3359,-1.3339,-1.3314,-1.3291,-1.3279,-1.3267,-1.3254,-1.3228,-1.3221,-1.3228,-1.3194,-1.3193,-1.3202,-1.321,-1.322,-1.3215,-1.3205,-1.3204,-1.3204,0,-1.3545,-1.3522,-1.3499,-1.3463,-1.3454,-1.3441,-1.3411,-1.3393,-1.3362,-1.3347,-1.3326,-1.3304,-1.3281,-1.3273,-1.3239,-1.3244,-1.3228,-1.3212,-1.3212,-1.3207,-1.3199,-1.3204,-1.3213,-1.3212,-1.3202,-1.3202,-1.3203,0,-1.3568,-1.3531,-1.3512,-1.3499,-1.3456,-1.3447,-1.3429,-1.3398,-1.3382,-1.3355,-1.3343,-1.3313,-1.3296,-1.3272,-1.3242,-1.3239,-1.321,-1.32,-1.3195,-1.3196,-1.319,-1.3191,-1.3195,-1.3181,-1.3182,-1.3182,-1.3182,0,-1.3576,-1.3562,-1.3521,-1.351,-1.3492,-1.3462,-1.3445,-1.3424,-1.3396,-1.3377,-1.3351,-1.3333,-1.3295,-1.3272,-1.3247,-1.3221,-1.3214,-1.3199,-1.3193,-1.3202,-1.3203,-1.319,-1.319,-1.3181,-1.3181,-1.3181,-1.3181,0,-1.3599,-1.3571,-1.3548,-1.351,-1.3499,-1.3488,-1.3454,-1.3439,-1.3416,-1.3392,-1.3385,-1.3347,-1.3318,-1.3286,-1.3245,-1.3229,-1.3203,-1.3195,-1.3215,-1.3211,-1.3207,-1.3207,-1.3203,-1.3199,-1.3189,-1.3189,-1.3189,0,-1.3605,-1.3594,-1.3554,-1.3541,-1.3523,-1.3502,-1.3485,-1.3453,-1.3436,-1.3399,-1.3388,-1.3357,-1.3331,-1.3284,-1.3252,-1.322,-1.3209,-1.321,-1.3204,-1.3212,-1.3207,-1.3208,-1.3205,-1.3212,-1.3212,-1.3212,-1.3212,0,-1.3619,-1.3605,-1.3583,-1.3555,-1.3536,-1.3512,-1.3487,-1.3476,-1.3439,-1.342,-1.3391,-1.3371,-1.3329,-1.3297,-1.3261,-1.3238,-1.3218,-1.3214,-1.3211,-1.3219,-1.323,-1.3222,-1.3218,-1.3214,-1.3214,-1.3214,-1.3214,-1.3214,-1.3633,-1.3621,-1.3591,-1.3566,-1.3543,-1.352,-1.3504,-1.3478,-1.3454,-1.3419,-1.3401,-1.3371,-1.3336,-1.3286,-1.3263,-1.3237,-1.3231,-1.3227,-1.3225,-1.3225,-1.3226,-1.3235,-1.323,-1.323,-1.323,-1.323,-1.323,0,-1.3644,-1.3623,-1.36,-1.3566,-1.3546,-1.353,-1.35,-1.3483,-1.3458,-1.3429,-1.3403,-1.3367,-1.3336,-1.33,-1.3265,-1.325,-1.324,-1.3242,-1.3243,-1.3237,-1.3235,-1.324,-1.3251,-1.3251,-1.3251,-1.3251,-1.3251,-1.3251,-1.3648,-1.3626,-1.3608,-1.3573,-1.3551,-1.3524,-1.3508,-1.3484,-1.3461,-1.3423,-1.3397,-1.3374,-1.3341,-1.3303,-1.3272,-1.3262,-1.3249,-1.3254,-1.3241,-1.3239,-1.3238,-1.3236,-1.3241,-1.3252,-1.3252,-1.3245,-1.3245,-1.3245]}]]